Weather History for Grant County, OR

Change the Weather History Date:

Sunday, March 2, 2014

  Actual Average (KBNO) Record (KBNO)
Temperature  
Mean Temperature 43 °F 33 °F  
Max Temperature 49 °F 45 °F 62 °F (1968)
Min Temperature 37 °F 22 °F 7 °F (1993)
Degree Days  
Heating Degree Days 22 32  
Month to date heating degree days 64  
Since 1 July heating degree days 5592  
Cooling Degree Days 0 0  
Month to date cooling degree days 0  
Year to date cooling degree days 0  
Moisture  
Dew Point 38 °F    
Average Humidity 78    
Maximum Humidity 95    
Minimum Humidity 58    
Precipitation  
Precipitation 0.05 in 0.04 in 0.27 in (2010)
Month to date precipitation 0.08  
Year to date precipitation 2.29  
Sea Level Pressure  
Sea Level Pressure 29.79 in    
Wind  
Wind Speed 9 mph (South)    
Max Wind Speed 28 mph    
Max Gust Speed 36 mph    
Visibility 10 miles    
Events Rain    
T = Trace of Precipitation, MM = Missing Value Source: NWS Daily Summary

Daily Weather History Graph

Daily Weather History Graph

Search for Another Location

Airport:

Trip Planner

Search our weather history database for the weather conditions in past years. The results will help you decide how hot, cold, wet, or windy it might be!

Date:

Astronomy

Mar. 02, 2014 Rise Set
Actual Time 6:31 AM PST 5:45 PM PST
Civil Twilight 6:02 AM PST 6:14 PM PST
Nautical Twilight 5:28 AM PST 6:48 PM PST
Astronomical Twilight 4:54 AM PST 7:21 PM PST
Moon 7:00 AM PST (3/2) 7:53 PM PST (3/2)
Length of Visible Light 12h 12m
Length of Day
11h 14m
Waxing Crescent, 3% of the Moon is Illuminated
Mar 2
Waxing Crescent
Mar 8
First Quarter
Mar 16
Full
Mar 23
Last Quarter
Mar 30
New

Hourly Weather History & Observations

Time (PST) Temp. Windchill Dew Point Humidity Pressure Visibility Wind Dir Wind Speed Gust Speed Precip Events Conditions
12:15 AM 39.0 °F - 36.0 °F 89% 29.76 in 10.0 mi Calm Calm - N/A   Overcast
12:35 AM 40.1 °F - 37.0 °F 89% 29.76 in 10.0 mi Calm Calm - 0.01 in Rain Light Rain
12:55 AM 41.9 °F 40.0 °F 38.3 °F 87% 29.77 in 10.0 mi NW 3.5 mph - 0.02 in Rain Light Rain
1:15 AM 40.8 °F 38.8 °F 37.4 °F 88% 29.76 in 10.0 mi SSE 3.5 mph - N/A   Overcast
1:35 AM 42.4 °F - 37.0 °F 81% 29.77 in 10.0 mi Calm Calm - N/A   Overcast
1:55 AM 39.4 °F 33.8 °F 36.5 °F 89% 29.77 in 10.0 mi East 8.1 mph - N/A   Overcast
2:15 AM 37.9 °F 33.5 °F 36.0 °F 93% 29.77 in 10.0 mi NE 5.8 mph - N/A   Overcast
2:35 AM 38.1 °F 32.3 °F 36.3 °F 93% 29.76 in 10.0 mi East 8.1 mph - N/A   Overcast
2:55 AM 37.9 °F 33.5 °F 36.5 °F 95% 29.76 in 10.0 mi ENE 5.8 mph - N/A   Overcast
3:15 AM 37.9 °F 32.7 °F 36.1 °F 93% 29.76 in 10.0 mi NE 6.9 mph - N/A   Mostly Cloudy
3:35 AM 38.5 °F 33.4 °F 36.5 °F 93% 29.76 in 10.0 mi ENE 6.9 mph - N/A   Overcast
3:55 AM 38.7 °F 36.3 °F 36.5 °F 92% 29.77 in 10.0 mi East 3.5 mph - N/A   Overcast
4:15 AM 41.0 °F 39.0 °F 36.7 °F 85% 29.77 in 10.0 mi East 3.5 mph - N/A   Overcast
4:35 AM 40.3 °F 38.2 °F 36.5 °F 86% 29.77 in 10.0 mi East 3.5 mph - N/A   Overcast
4:55 AM 39.0 °F - 36.5 °F 91% 29.78 in 10.0 mi Calm Calm - N/A   Overcast
5:15 AM 39.2 °F 35.0 °F 36.5 °F 90% 29.78 in 10.0 mi SE 5.8 mph - N/A   Overcast
5:35 AM 39.2 °F 35.0 °F 36.5 °F 90% 29.78 in 10.0 mi East 5.8 mph - N/A   Overcast
5:55 AM 39.4 °F 34.5 °F 36.5 °F 89% 29.78 in 10.0 mi ESE 6.9 mph - N/A   Overcast
6:15 AM 42.1 °F 40.2 °F 36.7 °F 81% 29.78 in 10.0 mi East 3.5 mph - N/A   Overcast
6:35 AM 42.3 °F 37.9 °F 36.7 °F 81% 29.78 in 10.0 mi South 6.9 mph - N/A   Overcast
6:55 AM 40.8 °F - 36.5 °F 85% 29.78 in 10.0 mi Calm Calm - N/A   Overcast
7:15 AM 44.1 °F 41.5 °F 37.0 °F 76% 29.79 in 10.0 mi ESE 4.6 mph - N/A   Overcast
7:35 AM 41.4 °F 37.6 °F 36.9 °F 84% 29.79 in 10.0 mi East 5.8 mph - N/A   Overcast
7:55 AM 41.2 °F 35.5 °F 37.0 °F 85% 29.79 in 10.0 mi East 9.2 mph - N/A   Overcast
8:15 AM 41.2 °F 38.2 °F 37.0 °F 85% 29.79 in 10.0 mi ENE 4.6 mph - N/A   Overcast
8:35 AM 41.0 °F - 37.0 °F 86% 29.79 in 10.0 mi Calm Calm - N/A   Overcast
8:55 AM 41.5 °F 39.6 °F 37.4 °F 85% 29.80 in 10.0 mi East 3.5 mph - N/A   Overcast
9:15 AM 44.2 °F 36.7 °F 37.4 °F 77% 29.80 in 10.0 mi SSE 17.3 mph 25.3 mph N/A Rain Light Rain
9:35 AM 44.6 °F 37.8 °F 37.6 °F 76% 29.79 in 10.0 mi South 15.0 mph 23.0 mph N/A   Overcast
9:55 AM 45.5 °F 41.3 °F 37.6 °F 74% 29.80 in 10.0 mi South 8.1 mph - N/A   Overcast
10:15 AM 46.2 °F 40.5 °F 37.9 °F 73% 29.80 in 10.0 mi South 12.7 mph 16.1 mph N/A   Overcast
10:17 AM 46.4 °F 40.4 °F 37.4 °F 71% 29.80 in 10.0 mi South 13.8 mph - N/A   Overcast
10:35 AM 46.6 °F - 38.5 °F 73% 29.79 in 10.0 mi South 18.4 mph 23.0 mph N/A   Mostly Cloudy
10:55 AM 47.1 °F - 39.2 °F 74% 29.79 in 10.0 mi South 15.0 mph 19.6 mph N/A   Mostly Cloudy
11:15 AM 47.5 °F - 38.8 °F 72% 29.79 in 10.0 mi SSW 12.7 mph 21.9 mph N/A   Mostly Cloudy
11:35 AM 47.1 °F - 38.7 °F 72% 29.80 in 10.0 mi South 12.7 mph 20.7 mph N/A   Mostly Cloudy
11:55 AM 45.9 °F 39.7 °F 39.4 °F 78% 29.79 in 10.0 mi South 13.8 mph 20.7 mph N/A   Drizzle
12:15 PM 45.5 °F 38.1 °F 40.3 °F 82% 29.78 in 7.0 mi South 18.4 mph 24.2 mph 0.01 in   Drizzle
12:35 PM 45.5 °F 38.1 °F 40.1 °F 81% 29.77 in 10.0 mi South 18.4 mph 26.5 mph 0.01 in   Drizzle
12:55 PM 45.5 °F 38.9 °F 40.1 °F 81% 29.76 in 7.0 mi South 15.0 mph 28.8 mph 0.01 in   Drizzle
1:15 PM 45.5 °F 38.3 °F 39.6 °F 80% 29.76 in 7.0 mi South 17.3 mph 25.3 mph N/A   Drizzle
1:35 PM 46.4 °F 38.1 °F 40.1 °F 79% 29.75 in 10.0 mi South 24.2 mph 32.2 mph N/A   Light Drizzle
1:55 PM 46.6 °F - 39.2 °F 75% 29.74 in 10.0 mi South 27.6 mph 34.5 mph N/A   Drizzle
2:15 PM 46.8 °F - 40.1 °F 78% 29.73 in 10.0 mi South 24.2 mph 29.9 mph 0.01 in Rain Rain
2:35 PM 47.5 °F - 40.3 °F 76% 29.74 in 10.0 mi South 18.4 mph 26.5 mph 0.01 in   Light Drizzle
2:55 PM 48.2 °F - 40.1 °F 74% 29.74 in 10.0 mi SSW 24.2 mph 35.7 mph 0.01 in   Light Drizzle
3:15 PM 47.3 °F - 40.6 °F 78% 29.75 in 10.0 mi South 16.1 mph 25.3 mph N/A   Drizzle
3:35 PM 47.3 °F - 41.0 °F 79% 29.75 in 10.0 mi South 11.5 mph - 0.01 in Rain Rain
3:55 PM 48.7 °F - 41.4 °F 76% 29.74 in 10.0 mi South 18.4 mph 23.0 mph 0.01 in   Mostly Cloudy
4:15 PM 48.2 °F - 40.8 °F 76% 29.75 in 10.0 mi South 11.5 mph 18.4 mph N/A   Drizzle
4:35 PM 48.2 °F - 41.2 °F 77% 29.75 in 10.0 mi SSW 12.7 mph - N/A Rain Rain
4:55 PM 48.2 °F - 41.7 °F 78% 29.76 in 10.0 mi SSW 17.3 mph 26.5 mph N/A Rain Light Rain
5:15 PM 48.0 °F - 41.7 °F 79% 29.76 in 10.0 mi South 20.7 mph 27.6 mph N/A   Mostly Cloudy
5:35 PM 48.4 °F - 40.3 °F 74% 29.76 in 10.0 mi South 19.6 mph 27.6 mph N/A   Mostly Cloudy
5:55 PM 49.3 °F - 39.6 °F 69% 29.76 in 10.0 mi South 23.0 mph 34.5 mph N/A   Mostly Cloudy
6:15 PM 49.5 °F - 39.4 °F 68% 29.77 in 10.0 mi SSW 20.7 mph 34.5 mph N/A   Overcast
6:35 PM 48.4 °F - 39.4 °F 71% 29.78 in 10.0 mi SSW 17.3 mph 24.2 mph N/A   Mostly Cloudy
6:55 PM 48.6 °F - 39.4 °F 71% 29.79 in 10.0 mi SSW 17.3 mph 31.1 mph N/A   Mostly Cloudy
7:15 PM 48.2 °F - 39.4 °F 72% 29.80 in 10.0 mi SW 16.1 mph - N/A   Mostly Cloudy
7:35 PM 48.2 °F - 39.2 °F 71% 29.81 in 10.0 mi SSW 13.8 mph - N/A   Overcast
7:55 PM 47.7 °F - 39.6 °F 73% 29.81 in 10.0 mi SW 9.2 mph - N/A   Overcast
8:15 PM 48.4 °F - 38.5 °F 69% 29.81 in 10.0 mi SSW 17.3 mph 23.0 mph N/A   Scattered Clouds
8:35 PM 48.4 °F - 37.4 °F 66% 29.82 in 10.0 mi SSW 18.4 mph - N/A   Scattered Clouds
8:55 PM 48.9 °F - 35.8 °F 61% 29.83 in 10.0 mi WSW 19.6 mph 26.5 mph N/A   Scattered Clouds
9:17 PM 48.2 °F - 35.6 °F 62% 29.84 in 10.0 mi SW 19.6 mph 26.5 mph N/A   Scattered Clouds
9:39 PM 48.2 °F - 35.6 °F 62% 29.85 in 10.0 mi SW 13.8 mph - N/A   Mostly Cloudy
9:55 PM 47.3 °F - 34.9 °F 62% 29.86 in 10.0 mi SW 10.4 mph - N/A   Mostly Cloudy
10:15 PM 46.6 °F - 34.5 °F 63% 29.87 in 10.0 mi WSW 10.4 mph - N/A   Mostly Cloudy
10:35 PM 46.8 °F - 33.1 °F 59% 29.87 in 10.0 mi SSW 12.7 mph 18.4 mph N/A   Scattered Clouds
10:55 PM 45.9 °F 39.7 °F 32.5 °F 60% 29.88 in 10.0 mi SW 13.8 mph - N/A   Scattered Clouds
11:15 PM 45.7 °F 38.8 °F 32.0 °F 59% 29.89 in 10.0 mi SW 16.1 mph - N/A   Scattered Clouds
11:35 PM 46.0 °F 39.6 °F 31.8 °F 58% 29.90 in 10.0 mi SW 15.0 mph 23.0 mph N/A   Scattered Clouds
11:55 PM 45.7 °F 39.5 °F 32.0 °F 59% 29.90 in 10.0 mi SSW 13.8 mph 19.6 mph N/A   Clear